Managua, Nicaragua

2:17 PM CST on November 20, 2017 (GMT -0600)
Augusto Cesar Sandino

Weather History for MNMG - March, 2014

Change the Weather History Date:

Friday, March 28, 2014

  Actual Average Record
Temperature  
Mean Temperature 85 °F -  
Max Temperature 95 °F 93 °F 98 °F (2011)
Min Temperature 75 °F 73 °F 66 °F (1997)
Cooling Degree Days 20    
Growing Degree Days 35 (Base 50)    
Moisture  
Dew Point 65 °F    
Average Humidity 54    
Maximum Humidity 78    
Minimum Humidity 30    
Precipitation  
Precipitation 0.00 in - - ()
Sea Level Pressure  
Sea Level Pressure 29.85 in    
Wind  
Wind Speed 10 mph ()    
Max Wind Speed 21 mph    
Max Gust Speed -    
Visibility 6.1 miles    
Events      
Averages and records for this station are not official NWS values.
T = Trace of Precipitation, MM = Missing Value Source: Averaged Metar Reports

Daily Weather History Graph

Daily Weather History Graph

Search for Another Location

Airport or City:

Trip Planner

Search our weather history database for the weather conditions in past years. The results will help you decide how hot, cold, wet, or windy it might be!

Date:

Astronomy

Mar. 28, 2014 Rise Set
Actual Time 5:43 AM CST 5:55 PM CST
Civil Twilight 5:22 AM CST 6:17 PM CST
Nautical Twilight 4:57 AM CST 6:41 PM CST
Astronomical Twilight 4:33 AM CST 7:06 PM CST
Moon 3:51 AM CST (3/28) 4:09 PM CST (3/28)
Length of Visible Light 12h 54m
Length of Day
12h 12m
Waning Crescent, 6% of the Moon is Illuminated
Mar 28
Waning Crescent
Mar 30
New
Apr 7
First Quarter
Apr 15
Full
Apr 22
Last Quarter

Hourly Weather History & Observations

Time (CST) Temp. Heat Index Dew Point Humidity Pressure Visibility Wind Dir Wind Speed Gust Speed Precip Events Conditions
12:00 AM 78.8 °F - 66.2 °F 65% 29.89 in - ESE 11.5 mph - N/A   Clear
1:00 AM 78.8 °F - 66.2 °F 65% 29.89 in - East 11.5 mph - N/A   Clear
3:00 AM 78.8 °F - 68.0 °F 69% 29.86 in 6.2 mi East 11.5 mph - N/A   Partly Cloudy
4:00 AM 77.0 °F - 68.0 °F 74% 29.86 in 6.2 mi East 9.2 mph - N/A   Partly Cloudy
5:00 AM 75.2 °F - 68.0 °F 78% 29.86 in 6.2 mi ESE 6.9 mph - N/A   Partly Cloudy
6:00 AM 75.2 °F - 66.2 °F 73% 29.89 in 6.2 mi ESE 9.2 mph - N/A   Scattered Clouds
7:00 AM 78.8 °F - 66.2 °F 65% 29.89 in 6.2 mi East 11.5 mph - N/A   Partly Cloudy
8:00 AM 82.4 °F 84.6 °F 66.2 °F 58% 29.92 in 6.2 mi ESE 16.1 mph - N/A   Partly Cloudy
9:00 AM 86.0 °F 88.2 °F 66.2 °F 51% 29.92 in 6.2 mi East 16.1 mph - N/A   Scattered Clouds
10:00 AM 86.0 °F 87.3 °F 64.4 °F 48% 29.92 in 5.6 mi ENE 11.5 mph - N/A   Scattered Clouds
11:00 AM 86.0 °F 87.3 °F 64.4 °F 48% 29.89 in 5.6 mi East 13.8 mph - N/A   Scattered Clouds
1:00 PM 95.0 °F 94.4 °F 59.0 °F 30% 29.83 in 6.2 mi East 20.7 mph - N/A   Partly Cloudy
2:00 PM 95.0 °F 94.4 °F 59.0 °F 30% 29.77 in 6.2 mi ESE 16.1 mph - N/A   Partly Cloudy
3:00 PM 95.0 °F 94.4 °F 59.0 °F 30% 29.77 in 6.2 mi ESE 20.7 mph - N/A   Partly Cloudy
4:00 PM 89.6 °F 91.1 °F 64.4 °F 43% 29.74 in 6.2 mi ENE 16.1 mph - N/A   Partly Cloudy
5:00 PM 89.6 °F 92.2 °F 66.2 °F 46% 29.77 in 6.2 mi NE 6.9 mph - N/A   Partly Cloudy
6:00 PM 87.8 °F 89.4 °F 64.4 °F 46% 29.77 in 6.2 mi NE 6.9 mph - N/A   Partly Cloudy
7:00 PM 86.0 °F 89.4 °F 68.0 °F 55% 29.80 in 6.2 mi NNE 6.9 mph - N/A   Partly Cloudy
8:00 PM 86.0 °F 87.3 °F 64.4 °F 48% 29.83 in 6.2 mi ENE 6.9 mph - N/A   Partly Cloudy
9:00 PM 84.2 °F 85.0 °F 62.6 °F 48% 29.83 in 6.2 mi East 9.2 mph - N/A   Partly Cloudy
10:00 PM 82.4 °F 83.9 °F 64.4 °F 54% 29.86 in 6.2 mi ESE 11.5 mph - N/A   Partly Cloudy
11:00 PM 80.6 °F 82.7 °F 66.2 °F 61% 29.89 in 6.2 mi ESE 11.5 mph - N/A   Partly Cloudy